Location: Bussy-Saint-Georges
(48.8410°N, 2.7017°E)
Time: 14:54:36
(UTC+00:00)

SL-08 RB Rocket - Pass Details

Date: 18 October 2021
Orbit: 646 x 683 km, 97.8° (Epoch: 29 November)

Event Time Altitude Azimuth Distance (km) Brightness Sun altitude
Rises 18:19:29 0° 163° (SSE) 2,973 6.9 -14.9°
Reaches altitude 10° 18:21:41 10° 163° (SSE) 2,071 6.1 -15.2°
Maximum altitude 18:26:13 86° 75° (ENE) 674 3.6 -16.0°
Drops below altitude 10° 18:30:50 10° 348° (NNW) 2,111 6.5 -16.7°
Sets 18:33:05 0° 348° (NNW) 3,035 7.3 -17.1°
